Year,Month,Day,Hour,Minute,Value (Times are PST for temperature in C)
2016,06,15,00,00,7.50
2016,06,15,00,01,7.50
2016,06,15,00,02,7.50
2016,06,15,00,03,7.50
2016,06,15,00,04,7.50
2016,06,15,00,05,7.40
2016,06,15,00,06,7.40
2016,06,15,00,07,7.40
2016,06,15,00,08,7.30
2016,06,15,00,09,7.30
2016,06,15,00,10,7.30
2016,06,15,00,11,7.30
2016,06,15,00,12,7.30
2016,06,15,00,13,7.30
2016,06,15,00,14,7.20
2016,06,15,00,15,7.20
2016,06,15,00,16,7.20
2016,06,15,00,17,7.20
2016,06,15,00,18,7.20
2016,06,15,00,19,7.20
2016,06,15,00,20,7.20
2016,06,15,00,21,7.20
2016,06,15,00,22,7.20
2016,06,15,00,23,7.20
2016,06,15,00,24,7.20
2016,06,15,00,25,7.20
2016,06,15,00,26,7.20
2016,06,15,00,27,7.20
2016,06,15,00,28,7.20
2016,06,15,00,30,7.10
2016,06,15,00,31,7.10
2016,06,15,00,32,7.10
2016,06,15,00,33,7.10
2016,06,15,00,34,7.10
2016,06,15,00,35,7.10
2016,06,15,00,36,7.10
2016,06,15,00,37,7.10
2016,06,15,00,38,7.10
2016,06,15,00,39,7.10
2016,06,15,00,40,7.10
2016,06,15,00,41,7.10
2016,06,15,00,42,7.10
2016,06,15,00,43,7.00
2016,06,15,00,44,7.00
2016,06,15,00,45,7.00
2016,06,15,00,46,7.00
2016,06,15,00,47,7.00
2016,06,15,00,48,7.00
2016,06,15,00,49,7.00
2016,06,15,00,50,7.00
2016,06,15,00,51,7.00
2016,06,15,00,52,7.10
2016,06,15,00,53,7.10
2016,06,15,00,54,7.10
2016,06,15,00,55,7.10
2016,06,15,00,56,7.10
2016,06,15,00,57,7.10
2016,06,15,00,58,7.10
2016,06,15,00,59,7.10
2016,06,15,01,00,7.10
2016,06,15,01,01,7.20
2016,06,15,01,02,7.20
2016,06,15,01,03,7.20
2016,06,15,01,04,7.20
2016,06,15,01,05,7.20
2016,06,15,01,06,7.20
2016,06,15,01,07,7.20
2016,06,15,01,08,7.20
2016,06,15,01,09,7.20
2016,06,15,01,10,7.20
2016,06,15,01,11,7.20
2016,06,15,01,12,7.30
2016,06,15,01,13,7.30
2016,06,15,01,14,7.30
2016,06,15,01,15,7.30
2016,06,15,01,16,7.30
2016,06,15,01,17,7.40
2016,06,15,01,18,7.40
2016,06,15,01,19,7.50
2016,06,15,01,20,7.50
2016,06,15,01,21,7.60
2016,06,15,01,22,7.60
2016,06,15,01,23,7.60
2016,06,15,01,24,7.70
2016,06,15,01,25,7.70
2016,06,15,01,26,7.70
2016,06,15,01,27,7.70
2016,06,15,01,28,7.70
2016,06,15,01,29,7.70
2016,06,15,01,30,7.80
2016,06,15,01,31,7.80
2016,06,15,01,32,7.80
2016,06,15,01,33,7.90
2016,06,15,01,34,7.90
2016,06,15,01,35,7.90
2016,06,15,01,36,7.90
2016,06,15,01,37,7.90
2016,06,15,01,38,7.90
2016,06,15,01,39,7.90
2016,06,15,01,40,8.10
2016,06,15,01,41,8.10
2016,06,15,01,42,8.10
2016,06,15,01,43,8.10
2016,06,15,01,44,8.10
2016,06,15,01,45,8.10
2016,06,15,01,46,8.10
2016,06,15,01,47,8.10
2016,06,15,01,48,8.10
2016,06,15,01,49,8.10
2016,06,15,01,50,8.10
2016,06,15,01,51,8.10
2016,06,15,01,52,8.20
2016,06,15,01,53,8.20
2016,06,15,01,54,8.20
2016,06,15,01,55,8.20
2016,06,15,01,56,8.20
2016,06,15,01,57,8.20
2016,06,15,01,58,8.20
2016,06,15,01,59,8.20
2016,06,15,02,00,8.30
2016,06,15,02,01,8.30
2016,06,15,02,02,8.30
2016,06,15,02,03,8.30
2016,06,15,02,04,8.40
2016,06,15,02,05,8.40
2016,06,15,02,06,8.40
2016,06,15,02,07,8.40
2016,06,15,02,08,8.40
2016,06,15,02,09,8.60
2016,06,15,02,10,8.60
2016,06,15,02,11,8.60
2016,06,15,02,12,8.70
2016,06,15,02,13,8.80
2016,06,15,02,14,8.80
2016,06,15,02,15,8.90
2016,06,15,02,16,8.90
2016,06,15,02,17,8.90
2016,06,15,02,18,8.90
2016,06,15,02,19,9.10
2016,06,15,02,20,9.10
2016,06,15,02,21,9.10
2016,06,15,02,22,9.20
2016,06,15,02,23,9.20
2016,06,15,02,24,9.30
2016,06,15,02,25,9.30
2016,06,15,02,26,9.30
2016,06,15,02,27,9.40
2016,06,15,02,28,9.40
2016,06,15,02,29,9.40
2016,06,15,02,30,9.40
2016,06,15,02,31,9.40
2016,06,15,02,32,9.40
2016,06,15,02,33,9.40
2016,06,15,02,34,9.40
2016,06,15,02,35,9.40
2016,06,15,02,36,9.40
2016,06,15,02,37,9.60
2016,06,15,02,38,9.60
2016,06,15,02,39,9.60
2016,06,15,02,40,9.60
2016,06,15,02,41,9.60
2016,06,15,02,42,9.60
2016,06,15,02,43,9.60
2016,06,15,02,44,9.60
2016,06,15,02,45,9.60
2016,06,15,02,46,9.60
2016,06,15,02,47,9.60
2016,06,15,02,49,9.60
2016,06,15,02,50,9.60
2016,06,15,02,51,9.60
2016,06,15,02,53,9.80
2016,06,15,02,54,9.80
2016,06,15,02,55,9.80
2016,06,15,02,56,9.80
2016,06,15,02,58,9.80
2016,06,15,02,59,9.90
2016,06,15,03,00,9.90
2016,06,15,03,01,9.90
2016,06,15,03,03,9.80
2016,06,15,03,04,9.80
2016,06,15,03,05,9.60
2016,06,15,03,06,9.40
2016,06,15,03,08,9.10
2016,06,15,03,10,8.90
2016,06,15,03,11,8.90
2016,06,15,03,13,8.60
2016,06,15,03,15,8.40
2016,06,15,03,16,8.40
2016,06,15,03,17,8.20
2016,06,15,03,18,8.10
2016,06,15,03,20,7.90
2016,06,15,03,21,7.90
2016,06,15,03,22,7.90
2016,06,15,03,23,7.90
2016,06,15,03,25,7.90
2016,06,15,03,26,7.90
2016,06,15,03,27,7.90
2016,06,15,03,28,8.10
2016,06,15,03,30,8.10
2016,06,15,03,31,8.10
2016,06,15,03,32,8.20
2016,06,15,03,33,8.20
2016,06,15,03,34,8.20
2016,06,15,03,35,8.20
2016,06,15,03,37,8.20
2016,06,15,03,38,8.20
2016,06,15,03,39,8.20
2016,06,15,03,40,8.30
2016,06,15,03,41,8.40
2016,06,15,03,42,8.40
2016,06,15,03,44,8.40
2016,06,15,03,45,8.40
2016,06,15,03,46,8.40
2016,06,15,03,47,8.40
2016,06,15,03,49,8.40
2016,06,15,03,50,8.40
2016,06,15,03,51,8.40
2016,06,15,03,52,8.40
2016,06,15,03,53,8.40
2016,06,15,03,54,8.40
2016,06,15,03,56,8.40
2016,06,15,03,57,8.40
2016,06,15,03,58,8.40
2016,06,15,03,59,8.40
2016,06,15,04,01,8.30
2016,06,15,04,02,8.30
2016,06,15,04,03,8.30
2016,06,15,04,04,8.30
2016,06,15,04,05,8.30
2016,06,15,04,06,8.30
2016,06,15,04,08,8.30
2016,06,15,04,09,8.30
2016,06,15,04,10,8.30
2016,06,15,04,11,8.30
2016,06,15,04,13,8.30
2016,06,15,04,14,8.30
2016,06,15,04,15,8.30
2016,06,15,04,16,8.30
2016,06,15,04,17,8.30
2016,06,15,04,18,8.30
2016,06,15,04,20,8.40
2016,06,15,04,21,8.40
2016,06,15,04,22,8.40
2016,06,15,04,23,8.40
2016,06,15,04,25,8.40
2016,06,15,04,26,8.40
2016,06,15,04,27,8.40
2016,06,15,04,28,8.40
2016,06,15,04,29,8.40
2016,06,15,04,30,8.40
2016,06,15,04,31,8.40
2016,06,15,04,32,8.40
2016,06,15,04,33,8.40
2016,06,15,04,34,8.40
2016,06,15,04,35,8.40
2016,06,15,04,37,8.40
2016,06,15,04,38,8.40
2016,06,15,04,39,8.40
2016,06,15,04,40,8.40
2016,06,15,04,41,8.40
2016,06,15,04,42,8.40
2016,06,15,04,44,8.40
2016,06,15,04,45,8.40
2016,06,15,04,46,8.40
2016,06,15,04,47,8.40
2016,06,15,04,49,8.40
2016,06,15,04,50,8.40
2016,06,15,04,51,8.40
2016,06,15,04,52,8.40
2016,06,15,04,54,8.40
2016,06,15,04,55,8.40
2016,06,15,04,56,8.40
2016,06,15,04,57,8.40
2016,06,15,04,59,8.40
2016,06,15,05,00,8.40
2016,06,15,05,01,8.40
2016,06,15,05,02,8.40
2016,06,15,05,04,8.40
2016,06,15,05,05,8.40
2016,06,15,05,06,8.40
2016,06,15,05,07,8.40
2016,06,15,05,08,8.40
2016,06,15,05,09,8.40
2016,06,15,05,11,8.40
2016,06,15,05,12,8.40
2016,06,15,05,13,8.40
2016,06,15,05,14,8.40
2016,06,15,05,16,8.40
2016,06,15,05,17,8.40
2016,06,15,05,18,8.40
2016,06,15,05,19,8.30
2016,06,15,05,20,8.30
2016,06,15,05,21,8.30
2016,06,15,05,23,8.30
2016,06,15,05,24,8.30
2016,06,15,05,25,8.40
2016,06,15,05,26,8.40
2016,06,15,05,27,8.40
2016,06,15,05,28,8.60
2016,06,15,05,29,8.60
2016,06,15,05,30,8.70
2016,06,15,05,31,8.90
2016,06,15,05,32,8.90
2016,06,15,05,33,8.90
2016,06,15,05,34,9.10
2016,06,15,05,35,9.10
2016,06,15,05,36,9.10
2016,06,15,05,37,9.10
2016,06,15,05,38,9.10
2016,06,15,05,39,9.10
2016,06,15,05,40,9.10
2016,06,15,05,42,9.10
2016,06,15,05,43,9.10
2016,06,15,05,44,9.10
2016,06,15,05,45,9.10
2016,06,15,05,46,9.10
2016,06,15,05,47,9.10
2016,06,15,05,48,9.10
2016,06,15,05,49,9.10
2016,06,15,05,50,9.10
2016,06,15,05,51,9.10
2016,06,15,05,52,8.90
2016,06,15,05,53,8.90
2016,06,15,05,54,8.90
2016,06,15,05,55,8.90
2016,06,15,05,56,8.90
2016,06,15,05,57,8.90
2016,06,15,05,58,8.90
2016,06,15,05,59,8.80
2016,06,15,06,00,8.80
2016,06,15,06,01,8.80
2016,06,15,06,02,8.80
2016,06,15,06,03,8.80
2016,06,15,06,04,8.80
2016,06,15,06,05,8.80
2016,06,15,06,06,8.70
2016,06,15,06,07,8.70
2016,06,15,06,08,8.70
2016,06,15,06,09,8.70
2016,06,15,06,10,8.70
2016,06,15,06,11,8.70
2016,06,15,06,12,8.70
2016,06,15,06,13,8.70
2016,06,15,06,14,8.70
2016,06,15,06,15,8.70
2016,06,15,06,16,8.70
2016,06,15,06,17,8.70
2016,06,15,06,18,8.60
2016,06,15,06,19,8.60
2016,06,15,06,20,8.60
2016,06,15,06,21,8.60
2016,06,15,06,22,8.60
2016,06,15,06,23,8.60
2016,06,15,06,24,8.60
2016,06,15,06,25,8.60
2016,06,15,06,26,8.60
2016,06,15,06,27,8.70
2016,06,15,06,28,8.70
2016,06,15,06,29,8.70
2016,06,15,06,30,8.70
2016,06,15,06,31,8.70
2016,06,15,06,32,8.60
2016,06,15,06,33,8.60
2016,06,15,06,34,8.60
2016,06,15,06,35,8.60
2016,06,15,06,36,8.60
2016,06,15,06,37,8.60
2016,06,15,06,38,8.40
2016,06,15,06,39,8.40
2016,06,15,06,40,8.40
2016,06,15,06,41,8.40
2016,06,15,06,42,8.40
2016,06,15,06,43,8.40
2016,06,15,06,44,8.40
2016,06,15,06,45,8.40
2016,06,15,06,46,8.40
2016,06,15,06,47,8.40
2016,06,15,06,48,8.40
2016,06,15,06,49,8.40
2016,06,15,06,50,8.40
2016,06,15,06,51,8.40
2016,06,15,06,52,8.60
2016,06,15,06,53,8.60
2016,06,15,06,54,8.60
2016,06,15,06,55,8.60
2016,06,15,06,56,8.60
2016,06,15,06,57,8.60
2016,06,15,06,58,8.60
2016,06,15,06,59,8.60
2016,06,15,07,00,8.70
2016,06,15,07,01,8.70
2016,06,15,07,02,8.70
2016,06,15,07,03,8.80
2016,06,15,07,04,8.80
2016,06,15,07,05,8.90
2016,06,15,07,06,8.90
2016,06,15,07,07,8.90
2016,06,15,07,08,8.90
2016,06,15,07,09,8.90
2016,06,15,07,10,8.90
2016,06,15,07,11,8.90
2016,06,15,07,12,8.90
2016,06,15,07,13,9.10
2016,06,15,07,14,9.10
2016,06,15,07,15,9.10
2016,06,15,07,16,9.10
2016,06,15,07,17,9.10
2016,06,15,07,18,9.10
2016,06,15,07,19,9.10
2016,06,15,07,20,9.10
2016,06,15,07,21,9.10
2016,06,15,07,22,9.10
2016,06,15,07,23,9.20
2016,06,15,07,24,9.20
2016,06,15,07,25,9.20
2016,06,15,07,26,9.20
2016,06,15,07,27,9.30
2016,06,15,07,28,9.30
2016,06,15,07,29,9.30
2016,06,15,07,30,9.30
2016,06,15,07,31,9.30
2016,06,15,07,32,9.30
2016,06,15,07,33,9.40
2016,06,15,07,34,9.40
2016,06,15,07,35,9.40
2016,06,15,07,36,9.40
2016,06,15,07,37,9.40
2016,06,15,07,38,9.40
2016,06,15,07,39,9.60
2016,06,15,07,40,9.60
2016,06,15,07,41,9.60
2016,06,15,07,42,9.60
2016,06,15,07,43,9.60
2016,06,15,07,44,9.60
2016,06,15,07,45,9.60
2016,06,15,07,46,9.60
2016,06,15,07,47,9.60
2016,06,15,07,48,9.60
2016,06,15,07,49,9.60
2016,06,15,07,50,9.60
2016,06,15,07,51,9.60
2016,06,15,07,52,9.60
2016,06,15,07,53,9.70
2016,06,15,07,54,9.70
2016,06,15,07,55,9.70
2016,06,15,07,56,9.70
2016,06,15,07,57,9.70
2016,06,15,07,58,9.70
2016,06,15,07,59,9.70
2016,06,15,08,00,9.70
2016,06,15,08,01,9.70
2016,06,15,08,02,9.70
2016,06,15,08,03,9.80
2016,06,15,08,04,9.80
2016,06,15,08,05,9.80
2016,06,15,08,06,9.80
2016,06,15,08,07,9.80
2016,06,15,08,08,9.80
2016,06,15,08,09,9.80
2016,06,15,08,10,9.80
2016,06,15,08,11,9.90
2016,06,15,08,12,9.90
2016,06,15,08,13,9.90
2016,06,15,08,14,9.90
2016,06,15,08,15,9.90
2016,06,15,08,16,9.90
2016,06,15,08,17,9.90
2016,06,15,08,18,9.90
2016,06,15,08,19,10.00
2016,06,15,08,20,10.00
2016,06,15,08,22,10.10
2016,06,15,08,23,10.10
2016,06,15,08,24,10.20
2016,06,15,08,26,10.30
2016,06,15,08,27,10.30
2016,06,15,08,28,10.30
2016,06,15,08,29,10.30
2016,06,15,08,30,10.30
2016,06,15,08,31,10.30
2016,06,15,08,33,10.30
2016,06,15,08,34,10.30
2016,06,15,08,35,10.30
2016,06,15,08,36,10.30
2016,06,15,08,38,10.40
2016,06,15,08,39,10.50
2016,06,15,08,40,10.50
2016,06,15,08,41,10.60
2016,06,15,08,43,10.70
2016,06,15,08,44,10.80
2016,06,15,08,45,10.80
2016,06,15,08,46,10.80
2016,06,15,08,48,10.80
2016,06,15,08,50,11.00
2016,06,15,08,51,11.00
2016,06,15,08,53,11.10
2016,06,15,08,55,11.20
2016,06,15,08,56,11.30
2016,06,15,08,58,11.40
2016,06,15,09,00,11.50
2016,06,15,09,01,11.50
2016,06,15,09,02,11.50
2016,06,15,09,03,11.60
2016,06,15,09,05,11.80
2016,06,15,09,06,11.80
2016,06,15,09,07,11.90
2016,06,15,09,08,11.90
2016,06,15,09,10,12.10
2016,06,15,09,11,12.20
2016,06,15,09,12,12.20
2016,06,15,09,13,12.20
2016,06,15,09,15,12.40
2016,06,15,09,16,12.40
2016,06,15,09,17,12.40
2016,06,15,09,18,12.50
2016,06,15,09,19,12.50
2016,06,15,09,20,12.60
2016,06,15,09,22,12.70
2016,06,15,09,23,12.90
2016,06,15,09,24,13.00
2016,06,15,09,25,13.10
2016,06,15,09,26,13.20
2016,06,15,09,27,13.20
2016,06,15,09,29,13.30
2016,06,15,09,30,13.50
2016,06,15,09,31,13.50
2016,06,15,09,32,13.60
2016,06,15,09,34,13.70
2016,06,15,09,35,13.80
2016,06,15,09,36,13.80
2016,06,15,09,37,13.80
2016,06,15,09,38,13.80
2016,06,15,09,39,13.80
2016,06,15,09,41,13.80
2016,06,15,09,42,13.80
2016,06,15,09,43,13.80
2016,06,15,09,44,13.70
2016,06,15,09,46,13.70
2016,06,15,09,47,13.70
2016,06,15,09,48,13.70
2016,06,15,09,49,13.70
2016,06,15,09,50,13.70
2016,06,15,09,51,13.70
2016,06,15,09,53,13.90
2016,06,15,09,54,13.90
2016,06,15,09,55,13.90
2016,06,15,09,56,13.90
2016,06,15,09,57,13.90
2016,06,15,09,58,13.90
2016,06,15,10,00,14.10
2016,06,15,10,01,14.10
2016,06,15,10,02,14.20
2016,06,15,10,03,14.20
2016,06,15,10,05,14.30
2016,06,15,10,06,14.40
2016,06,15,10,07,14.40
2016,06,15,10,08,14.50
2016,06,15,10,10,14.60
2016,06,15,10,11,14.60
2016,06,15,10,12,14.60
2016,06,15,10,13,14.60
2016,06,15,10,14,14.70
2016,06,15,10,15,14.70
2016,06,15,10,17,14.70
2016,06,15,10,18,14.80
2016,06,15,10,19,14.90
2016,06,15,10,20,15.10
2016,06,15,10,21,15.10
2016,06,15,10,22,15.20
2016,06,15,10,23,15.20
2016,06,15,10,24,15.30
2016,06,15,10,25,15.30
2016,06,15,10,26,15.40
2016,06,15,10,27,15.50
2016,06,15,10,29,15.60
2016,06,15,10,30,15.60
2016,06,15,10,31,15.60
2016,06,15,10,32,15.70
2016,06,15,10,34,15.70
2016,06,15,10,35,15.70
2016,06,15,10,36,15.70
2016,06,15,10,37,15.70
2016,06,15,10,39,15.60
2016,06,15,10,40,15.60
2016,06,15,10,41,15.60
2016,06,15,10,42,15.60
2016,06,15,10,44,15.60
2016,06,15,10,45,15.70
2016,06,15,10,46,15.70
2016,06,15,10,47,15.70
2016,06,15,10,49,15.90
2016,06,15,10,50,15.90
2016,06,15,10,51,16.00
2016,06,15,10,52,16.00
2016,06,15,10,53,16.10
2016,06,15,10,54,16.10
2016,06,15,10,56,16.30
2016,06,15,10,57,16.30
2016,06,15,10,58,16.30
2016,06,15,10,59,16.30
2016,06,15,11,01,16.30
2016,06,15,11,02,16.30
2016,06,15,11,03,16.30
2016,06,15,11,04,16.20
2016,06,15,11,05,16.20
2016,06,15,11,06,16.20
2016,06,15,11,08,16.20
2016,06,15,11,09,16.20
2016,06,15,11,10,16.20
2016,06,15,11,11,16.20
2016,06,15,11,12,16.20
2016,06,15,11,13,16.20
2016,06,15,11,14,16.10
2016,06,15,11,15,16.00
2016,06,15,11,16,16.00
2016,06,15,11,17,16.00
2016,06,15,11,18,16.00
2016,06,15,11,19,16.00
2016,06,15,11,20,16.00
2016,06,15,11,21,16.00
2016,06,15,11,22,15.90
2016,06,15,11,23,15.80
2016,06,15,11,24,15.80
2016,06,15,11,25,15.80
2016,06,15,11,26,15.80
2016,06,15,11,27,15.80
2016,06,15,11,28,15.80
2016,06,15,11,29,15.80
2016,06,15,11,30,15.80
2016,06,15,11,31,15.80
2016,06,15,11,32,15.80
2016,06,15,11,33,15.80
2016,06,15,11,34,15.80
2016,06,15,11,35,15.80
2016,06,15,11,36,15.90
2016,06,15,11,37,15.90
2016,06,15,11,38,15.90
2016,06,15,11,39,16.00
2016,06,15,11,40,16.10
2016,06,15,11,41,16.10
2016,06,15,11,42,16.20
2016,06,15,11,44,16.20
2016,06,15,11,45,16.20
2016,06,15,11,46,16.20
2016,06,15,11,47,16.20
2016,06,15,11,49,16.20
2016,06,15,11,50,16.10
2016,06,15,11,51,16.00
2016,06,15,11,52,16.00
2016,06,15,11,54,15.80
2016,06,15,11,55,15.80
2016,06,15,11,56,15.80
2016,06,15,11,57,15.70
2016,06,15,11,58,15.70
2016,06,15,11,59,15.60
2016,06,15,12,00,15.60
2016,06,15,12,01,15.50
2016,06,15,12,02,15.50
2016,06,15,12,03,15.40
2016,06,15,12,04,15.30
2016,06,15,12,05,15.20
2016,06,15,12,06,15.10
2016,06,15,12,07,15.00
2016,06,15,12,08,15.00
2016,06,15,12,09,14.90
2016,06,15,12,10,14.80
2016,06,15,12,11,14.70
2016,06,15,12,13,14.70
2016,06,15,12,14,14.70
2016,06,15,12,15,14.60
2016,06,15,12,16,14.60
2016,06,15,12,17,14.50
2016,06,15,12,18,14.40
2016,06,15,12,19,14.40
2016,06,15,12,20,14.30
2016,06,15,12,21,14.30
2016,06,15,12,22,14.20
2016,06,15,12,23,14.20
2016,06,15,12,24,14.20
2016,06,15,12,25,14.20
2016,06,15,12,26,14.20
2016,06,15,12,27,14.20
2016,06,15,12,28,14.30
2016,06,15,12,29,14.30
2016,06,15,12,30,14.50
2016,06,15,12,31,14.50
2016,06,15,12,32,14.60
2016,06,15,12,33,14.60
2016,06,15,12,34,14.70
2016,06,15,12,35,14.70
2016,06,15,12,36,14.80
2016,06,15,12,37,14.80
2016,06,15,12,38,14.80
2016,06,15,12,39,14.90
2016,06,15,12,40,14.90
2016,06,15,12,41,14.90
2016,06,15,12,42,14.90
2016,06,15,12,43,14.80
2016,06,15,12,44,14.80
2016,06,15,12,45,14.70
2016,06,15,12,46,14.70
2016,06,15,12,47,14.70
2016,06,15,12,48,14.70
2016,06,15,12,49,14.70
2016,06,15,12,50,14.70
2016,06,15,12,51,14.60
2016,06,15,12,52,14.60
2016,06,15,12,53,14.60
2016,06,15,12,54,14.70
2016,06,15,12,55,14.70
2016,06,15,12,56,14.80
2016,06,15,12,57,14.90
2016,06,15,12,58,14.90
2016,06,15,12,59,15.00
2016,06,15,13,00,15.20
2016,06,15,13,01,15.20
2016,06,15,13,02,15.30
2016,06,15,13,03,15.50
2016,06,15,13,04,15.60
2016,06,15,13,05,15.70
2016,06,15,13,06,15.70
2016,06,15,13,07,15.70
2016,06,15,13,08,15.70
2016,06,15,13,09,15.70
2016,06,15,13,10,15.70
2016,06,15,13,11,15.70
2016,06,15,13,12,15.70
2016,06,15,13,13,15.60
2016,06,15,13,14,15.50
2016,06,15,13,15,15.40
2016,06,15,13,16,15.30
2016,06,15,13,17,15.30
2016,06,15,13,18,15.20
2016,06,15,13,19,15.20
2016,06,15,13,20,15.10
2016,06,15,13,21,15.10
2016,06,15,13,22,15.00
2016,06,15,13,23,15.00
2016,06,15,13,24,14.80
2016,06,15,13,25,14.70
2016,06,15,13,26,14.70
2016,06,15,13,27,14.70
2016,06,15,13,28,14.70
2016,06,15,13,29,14.70
2016,06,15,13,30,14.70
2016,06,15,13,31,14.80
2016,06,15,13,32,14.80
2016,06,15,13,33,14.80
2016,06,15,13,34,14.90
2016,06,15,13,35,15.00
2016,06,15,13,36,15.00
2016,06,15,13,37,15.00
2016,06,15,13,38,15.10
2016,06,15,13,39,15.20
2016,06,15,13,40,15.20
2016,06,15,13,41,15.20
2016,06,15,13,42,15.30
2016,06,15,13,43,15.40
2016,06,15,13,44,15.40
2016,06,15,13,45,15.40
2016,06,15,13,46,15.50
2016,06,15,13,47,15.50
2016,06,15,13,48,15.40
2016,06,15,13,49,15.40
2016,06,15,13,50,15.30
2016,06,15,13,51,15.30
2016,06,15,13,52,15.20
2016,06,15,13,53,15.20
2016,06,15,13,54,15.20
2016,06,15,13,55,15.20
2016,06,15,13,56,15.10
2016,06,15,13,57,15.10
2016,06,15,13,58,15.10
2016,06,15,13,59,15.00
2016,06,15,14,00,15.00
2016,06,15,14,01,15.00
2016,06,15,14,02,15.00
2016,06,15,14,03,15.00
2016,06,15,14,04,15.00
2016,06,15,14,05,15.10
2016,06,15,14,06,15.20
2016,06,15,14,07,15.20
2016,06,15,14,08,15.20
2016,06,15,14,09,15.20
2016,06,15,14,10,15.10
2016,06,15,14,11,15.10
2016,06,15,14,12,15.10
2016,06,15,14,13,15.00
2016,06,15,14,14,15.00
2016,06,15,14,15,15.00
2016,06,15,14,16,15.00
2016,06,15,14,17,14.90
2016,06,15,14,18,14.80
2016,06,15,14,19,14.80
2016,06,15,14,20,14.70
2016,06,15,14,21,14.70
2016,06,15,14,22,14.50
2016,06,15,14,23,14.40
2016,06,15,14,24,14.30
2016,06,15,14,25,14.10
2016,06,15,14,26,14.10
2016,06,15,14,27,13.90
2016,06,15,14,28,13.90
2016,06,15,14,29,13.90
2016,06,15,14,30,13.90
2016,06,15,14,31,13.90
2016,06,15,14,32,13.90
2016,06,15,14,33,14.10
2016,06,15,14,34,14.10
2016,06,15,14,35,14.20
2016,06,15,14,36,14.30
2016,06,15,14,37,14.30
2016,06,15,14,38,14.30
2016,06,15,14,39,14.30
2016,06,15,14,40,14.40
2016,06,15,14,41,14.40
2016,06,15,14,42,14.40
2016,06,15,14,43,14.30
2016,06,15,14,45,14.30
2016,06,15,14,46,14.30
2016,06,15,14,47,14.30
2016,06,15,14,48,14.20
2016,06,15,14,50,14.30
2016,06,15,14,52,14.30
2016,06,15,14,53,14.30
2016,06,15,14,54,14.30
2016,06,15,14,55,14.30
2016,06,15,14,57,14.30
2016,06,15,14,59,14.40
2016,06,15,15,00,14.40
2016,06,15,15,01,14.50
2016,06,15,15,02,14.50
2016,06,15,15,04,14.70
2016,06,15,15,05,14.70
2016,06,15,15,06,14.90
2016,06,15,15,07,15.00
2016,06,15,15,09,15.10
2016,06,15,15,10,15.10
2016,06,15,15,11,15.10
2016,06,15,15,12,15.00
2016,06,15,15,14,14.90
2016,06,15,15,15,14.70
2016,06,15,15,16,14.70
2016,06,15,15,17,14.70
2016,06,15,15,18,14.70
2016,06,15,15,19,14.70
2016,06,15,15,20,14.70
2016,06,15,15,21,14.60
2016,06,15,15,23,14.60
2016,06,15,15,24,14.60
2016,06,15,15,25,14.60
2016,06,15,15,26,14.70
2016,06,15,15,28,14.70
2016,06,15,15,29,14.70
2016,06,15,15,30,14.70
2016,06,15,15,31,14.70
2016,06,15,15,33,14.70
2016,06,15,15,34,14.70
2016,06,15,15,35,14.70
2016,06,15,15,36,14.70
2016,06,15,15,38,14.70
2016,06,15,15,39,14.70
2016,06,15,15,40,14.70
2016,06,15,15,41,14.70
2016,06,15,15,42,14.70
2016,06,15,15,43,14.70
2016,06,15,15,45,14.70
2016,06,15,15,46,14.70
2016,06,15,15,47,14.70
2016,06,15,15,48,14.70
2016,06,15,15,50,14.80
2016,06,15,15,51,14.80
2016,06,15,15,52,14.80
2016,06,15,15,53,14.80
2016,06,15,15,54,14.90
2016,06,15,15,55,14.90
2016,06,15,15,57,14.80
2016,06,15,15,58,14.90
2016,06,15,15,59,14.90
2016,06,15,16,00,14.90
2016,06,15,16,02,15.00
2016,06,15,16,04,15.00
2016,06,15,16,05,15.00
2016,06,15,16,06,15.00
2016,06,15,16,07,15.10
2016,06,15,16,09,15.20
2016,06,15,16,10,15.20
2016,06,15,16,11,15.20
2016,06,15,16,12,15.30
2016,06,15,16,14,15.30
2016,06,15,16,15,15.30
2016,06,15,16,16,15.30
2016,06,15,16,17,15.30
2016,06,15,16,19,15.20
2016,06,15,16,20,15.20
2016,06,15,16,21,15.30
2016,06,15,16,22,15.30
2016,06,15,16,23,15.40
2016,06,15,16,24,15.40
2016,06,15,16,26,15.60
2016,06,15,16,27,15.70
2016,06,15,16,28,15.70
2016,06,15,16,29,15.70
2016,06,15,16,31,15.70
2016,06,15,16,32,15.70
2016,06,15,16,33,15.70
2016,06,15,16,34,15.80
2016,06,15,16,35,15.80
2016,06,15,16,36,15.80
2016,06,15,16,38,15.90
2016,06,15,16,39,15.90
2016,06,15,16,40,15.90
2016,06,15,16,41,16.00
2016,06,15,16,43,16.10
2016,06,15,16,44,16.10
2016,06,15,16,45,16.10
2016,06,15,16,46,16.10
2016,06,15,16,47,16.20
2016,06,15,16,48,16.20
2016,06,15,16,50,16.20
2016,06,15,16,51,16.30
2016,06,15,16,52,16.30
2016,06,15,16,53,16.30
2016,06,15,16,54,16.20
2016,06,15,16,55,16.20
2016,06,15,16,57,16.10
2016,06,15,16,58,16.00
2016,06,15,16,59,16.00
2016,06,15,17,00,16.00
2016,06,15,17,02,16.10
2016,06,15,17,03,16.10
2016,06,15,17,04,16.20
2016,06,15,17,05,16.20
2016,06,15,17,06,16.10
2016,06,15,17,07,16.00
2016,06,15,17,09,15.80
2016,06,15,17,10,15.70
2016,06,15,17,11,15.70
2016,06,15,17,12,15.60
2016,06,15,17,13,15.60
2016,06,15,17,14,15.50
2016,06,15,17,16,15.40
2016,06,15,17,17,15.40
2016,06,15,17,18,15.40
2016,06,15,17,19,15.40
2016,06,15,17,21,15.50
2016,06,15,17,22,15.50
2016,06,15,17,23,15.60
2016,06,15,17,24,15.60
2016,06,15,17,25,15.60
2016,06,15,17,26,15.60
2016,06,15,17,28,15.60
2016,06,15,17,29,15.60
2016,06,15,17,30,15.50
2016,06,15,17,31,15.50
2016,06,15,17,33,15.40
2016,06,15,17,34,15.40
2016,06,15,17,35,15.30
2016,06,15,17,36,15.30
2016,06,15,17,37,15.30
2016,06,15,17,38,15.20
2016,06,15,17,40,15.20
2016,06,15,17,41,15.20
2016,06,15,17,42,15.20
2016,06,15,17,43,15.20
2016,06,15,17,44,15.20
2016,06,15,17,45,15.20
2016,06,15,17,47,15.20
2016,06,15,17,48,15.20
2016,06,15,17,49,15.30
2016,06,15,17,50,15.40
2016,06,15,17,51,15.50
2016,06,15,17,52,15.50
2016,06,15,17,53,15.60
2016,06,15,17,54,15.60
2016,06,15,17,55,15.70
2016,06,15,17,56,15.70
2016,06,15,17,57,15.70
2016,06,15,17,59,15.70
2016,06,15,18,00,15.70
2016,06,15,18,01,15.80
2016,06,15,18,02,15.80
2016,06,15,18,03,15.90
2016,06,15,18,04,15.90
2016,06,15,18,05,15.90
2016,06,15,18,06,15.90
2016,06,15,18,07,15.80
2016,06,15,18,08,15.80
2016,06,15,18,09,15.80
2016,06,15,18,11,15.80
2016,06,15,18,12,15.80
2016,06,15,18,13,15.90
2016,06,15,18,14,15.90
2016,06,15,18,15,15.90
2016,06,15,18,16,16.00
2016,06,15,18,17,16.00
2016,06,15,18,18,15.90
2016,06,15,18,19,15.90
2016,06,15,18,20,15.90
2016,06,15,18,21,15.90
2016,06,15,18,22,15.90
2016,06,15,18,23,15.90
2016,06,15,18,24,15.90
2016,06,15,18,25,15.90
2016,06,15,18,26,15.90
2016,06,15,18,27,15.90
2016,06,15,18,28,15.90
2016,06,15,18,29,15.90
2016,06,15,18,30,15.90
2016,06,15,18,31,15.80
2016,06,15,18,32,15.80
2016,06,15,18,33,15.80
2016,06,15,18,34,15.80
2016,06,15,18,35,15.80
2016,06,15,18,36,15.80
2016,06,15,18,37,15.80
2016,06,15,18,38,15.80
2016,06,15,18,39,15.80
2016,06,15,18,40,15.70
2016,06,15,18,41,15.70
2016,06,15,18,42,15.70
2016,06,15,18,43,15.70
2016,06,15,18,44,15.70
2016,06,15,18,45,15.70
2016,06,15,18,46,15.70
2016,06,15,18,47,15.70
2016,06,15,18,48,15.70
2016,06,15,18,49,15.70
2016,06,15,18,50,15.70
2016,06,15,18,51,15.60
2016,06,15,18,52,15.60
2016,06,15,18,53,15.60
2016,06,15,18,54,15.60
2016,06,15,18,55,15.60
2016,06,15,18,56,15.50
2016,06,15,18,57,15.50
2016,06,15,18,58,15.50
2016,06,15,18,59,15.50
2016,06,15,19,00,15.50
2016,06,15,19,01,15.50
2016,06,15,19,02,15.40
2016,06,15,19,03,15.40
2016,06,15,19,04,15.40
2016,06,15,19,05,15.40
2016,06,15,19,06,15.40
2016,06,15,19,07,15.40
2016,06,15,19,08,15.40
2016,06,15,19,09,15.40
2016,06,15,19,10,15.40
2016,06,15,19,11,15.40
2016,06,15,19,12,15.50
2016,06,15,19,13,15.50
2016,06,15,19,14,15.50
2016,06,15,19,15,15.50
2016,06,15,19,16,15.50
2016,06,15,19,17,15.50
2016,06,15,19,18,15.50
2016,06,15,19,19,15.50
2016,06,15,19,20,15.50
2016,06,15,19,21,15.50
2016,06,15,19,22,15.50